VOZ1531 YMHB-YSSY

Flight info

Callsign VOZ1531
Flight time N/A
Altitude 33000
Route TASUM H111 LT W218 VIMAP Y327 MAKRL J163 CB W423 CULIN Y59 RIVET
Aircraft B738/M-SDE2E3FGHIRWXY/LB1

Departure

Time 2026-05-08 06:36
Airport Hobart International Airport (YMHB)

Arrival

Time N/A
Airport Sydney Kingsford Smith International Airport (YSSY)
Time Latitude Longitude Altitude Speed Heading
2026-05-08 05:46 -42.83684 147.50623 21 ft 0 kts 224°
2026-05-08 06:16 -42.83670 147.50643 21 ft 4 kts 225°
2026-05-08 06:17 -42.83655 147.50692 21 ft 4 kts 311°
2026-05-08 06:17 -42.83673 147.50716 24 ft 4 kts 315°
2026-05-08 06:17 -42.83686 147.50734 21 ft 0 kts 315°
2026-05-08 06:24 -42.83681 147.50728 21 ft 0 kts 315°
2026-05-08 06:27 -42.83678 147.50724 21 ft 4 kts 315°
2026-05-08 06:28 -42.83648 147.50682 21 ft 8 kts 315°
2026-05-08 06:28 -42.83588 147.50674 21 ft 10 kts 35°
2026-05-08 06:28 -42.83577 147.50756 23 ft 10 kts 124°
2026-05-08 06:28 -42.83628 147.50826 21 ft 12 kts 135°
2026-05-08 06:29 -42.83685 147.50904 21 ft 12 kts 135°
2026-05-08 06:29 -42.83741 147.50981 22 ft 11 kts 135°
2026-05-08 06:29 -42.83802 147.51063 22 ft 13 kts 135°
2026-05-08 06:29 -42.83861 147.51156 21 ft 13 kts 107°
2026-05-08 06:30 -42.83827 147.51243 22 ft 6 kts 45°
2026-05-08 06:30 -42.83821 147.51251 21 ft 0 kts 45°
2026-05-08 06:30 -42.83807 147.51269 21 ft 8 kts 45°
2026-05-08 06:30 -42.83766 147.51364 21 ft 13 kts 99°
2026-05-08 06:31 -42.83824 147.51462 23 ft 16 kts 135°
2026-05-08 06:31 -42.83915 147.51585 22 ft 19 kts 135°
2026-05-08 06:31 -42.84006 147.51708 21 ft 18 kts 134°
2026-05-08 06:31 -42.84093 147.51828 23 ft 17 kts 134°
2026-05-08 06:32 -42.84177 147.51944 21 ft 17 kts 135°
2026-05-08 06:32 -42.84259 147.52054 22 ft 16 kts 137°
2026-05-08 06:32 -42.84339 147.52157 21 ft 15 kts 134°
2026-05-08 06:32 -42.84412 147.52261 23 ft 15 kts 138°
2026-05-08 06:33 -42.84512 147.52319 23 ft 16 kts 163°
2026-05-08 06:33 -42.84566 147.52392 21 ft 8 kts 87°
2026-05-08 06:33 -42.84526 147.52411 21 ft 6 kts 332°
2026-05-08 06:33 -42.84505 147.52385 22 ft 0 kts 315°
2026-05-08 06:35 -42.84391 147.52230 22 ft 64 kts 315°
2026-05-08 06:35 -42.83866 147.51519 21 ft 146 kts 315°
2026-05-08 06:35 -42.83020 147.50351 330 ft 186 kts 313°
2026-05-08 06:36 -42.82067 147.49073 1287 ft 197 kts 310°
2026-05-08 06:36 -42.81093 147.47768 2323 ft 195 kts 309°
2026-05-08 06:36 -42.80138 147.46473 3236 ft 193 kts 307°
2026-05-08 06:36 -42.79155 147.45119 3763 ft 206 kts 307°
2026-05-08 06:37 -42.78137 147.43720 4290 ft 209 kts 307°
2026-05-08 06:37 -42.77112 147.42315 4807 ft 209 kts 307°
2026-05-08 06:37 -42.76040 147.40837 5060 ft 232 kts 307°
2026-05-08 06:37 -42.75269 147.39772 5284 ft 244 kts 308°
2026-05-08 06:38 -42.74015 147.38043 5555 ft 268 kts 308°
2026-05-08 06:38 -42.72672 147.36202 6272 ft 279 kts 308°
2026-05-08 06:38 -42.71283 147.34312 7075 ft 284 kts 308°
2026-05-08 06:38 -42.69871 147.32388 7826 ft 291 kts 308°
2026-05-08 06:39 -42.68430 147.30423 8553 ft 296 kts 309°
2026-05-08 06:39 -42.66959 147.28417 9283 ft 303 kts 309°
2026-05-08 06:39 -42.65458 147.26370 10010 ft 308 kts 309°
2026-05-08 06:39 -42.63921 147.24272 10473 ft 323 kts 309°
2026-05-08 06:40 -42.62281 147.22028 10646 ft 346 kts 309°
2026-05-08 06:40 -42.60417 147.19789 10776 ft 375 kts 323°
2026-05-08 06:40 -42.57911 147.18480 10966 ft 401 kts 350°
2026-05-08 06:40 -42.55108 147.18681 11435 ft 411 kts 16°
2026-05-08 06:41 -42.52563 147.20380 12113 ft 408 kts 37°
2026-05-08 06:41 -42.50285 147.22685 12715 ft 411 kts 39°
2026-05-08 06:41 -42.47965 147.25004 13208 ft 417 kts 38°
2026-05-08 06:41 -42.45601 147.27301 13793 ft 420 kts 37°
2026-05-08 06:42 -42.43205 147.29583 14323 ft 422 kts 37°
2026-05-08 06:42 -42.40762 147.31807 14806 ft 426 kts 31°
2026-05-08 06:42 -42.38057 147.33492 15247 ft 431 kts 19°
2026-05-08 06:42 -42.35150 147.34517 15720 ft 433 kts 12°
2026-05-08 06:43 -42.32194 147.35361 16158 ft 436 kts 12°
2026-05-08 06:43 -42.29210 147.36201 16550 ft 440 kts 12°
2026-05-08 06:43 -42.26208 147.37052 16968 ft 442 kts 12°
2026-05-08 06:43 -42.23190 147.37918 17369 ft 445 kts 12°
2026-05-08 06:44 -42.20156 147.38800 17774 ft 447 kts 12°
2026-05-08 06:44 -42.17105 147.39694 18157 ft 450 kts 12°
2026-05-08 06:44 -42.14033 147.40600 18500 ft 453 kts 12°
2026-05-08 06:44 -42.10948 147.41511 18825 ft 455 kts 12°
2026-05-08 06:45 -42.07853 147.42425 19162 ft 456 kts 12°
2026-05-08 06:45 -42.04745 147.43342 19475 ft 458 kts 12°
2026-05-08 06:45 -42.01625 147.44262 19772 ft 460 kts 12°
2026-05-08 06:45 -41.98489 147.45185 20062 ft 462 kts 12°
2026-05-08 06:46 -41.95341 147.46111 20346 ft 464 kts 12°
2026-05-08 06:46 -41.92187 147.47037 20620 ft 466 kts 12°
2026-05-08 06:46 -41.89025 147.47965 20888 ft 468 kts 13°
2026-05-08 06:46 -41.85826 147.48902 21141 ft 470 kts 12°
2026-05-08 06:47 -41.82624 147.49839 21393 ft 471 kts 13°
2026-05-08 06:47 -41.79415 147.50778 21652 ft 473 kts 13°
2026-05-08 06:47 -41.76196 147.51718 21906 ft 474 kts 13°
2026-05-08 06:47 -41.72969 147.52660 22140 ft 475 kts 13°
2026-05-08 06:48 -41.69734 147.53603 22366 ft 477 kts 13°
2026-05-08 06:48 -41.66484 147.54549 22590 ft 478 kts 13°
2026-05-08 06:48 -41.63231 147.55495 22821 ft 480 kts 13°
2026-05-08 06:48 -41.59965 147.56445 23028 ft 481 kts 13°
2026-05-08 06:49 -41.56687 147.57396 23239 ft 482 kts 13°
2026-05-08 06:49 -41.53403 147.58349 23426 ft 484 kts 13°
2026-05-08 06:49 -41.50109 147.59303 23614 ft 485 kts 13°
2026-05-08 06:49 -41.46808 147.60259 23765 ft 487 kts 13°
2026-05-08 06:50 -41.43494 147.61217 23916 ft 488 kts 13°
2026-05-08 06:50 -41.40212 147.62165 24060 ft 490 kts 13°
2026-05-08 06:50 -41.36833 147.63140 24172 ft 491 kts 13°
2026-05-08 06:50 -41.33535 147.64090 24334 ft 492 kts 13°
2026-05-08 06:51 -41.30189 147.65054 24482 ft 493 kts 13°
2026-05-08 06:51 -41.26835 147.66018 24593 ft 494 kts 13°
2026-05-08 06:51 -41.23469 147.66985 24722 ft 496 kts 13°
2026-05-08 06:51 -41.20095 147.67954 24847 ft 496 kts 13°
2026-05-08 06:52 -41.16743 147.68913 25343 ft 487 kts 13°
2026-05-08 06:52 -41.13476 147.69846 26087 ft 473 kts 14°
2026-05-08 06:52 -41.10310 147.70747 26850 ft 458 kts 14°
2026-05-08 06:52 -41.07247 147.71619 27621 ft 445 kts 14°
2026-05-08 06:53 -41.04232 147.72478 27949 ft 443 kts 15°
2026-05-08 06:53 -41.01203 147.73345 28064 ft 447 kts 15°
2026-05-08 06:53 -40.98147 147.74220 28234 ft 452 kts 15°
2026-05-08 06:53 -40.95067 147.75100 28662 ft 453 kts 15°
2026-05-08 06:54 -40.91983 147.75979 29130 ft 454 kts 15°
2026-05-08 06:54 -40.88886 147.76860 29505 ft 457 kts 15°
2026-05-08 06:54 -40.85761 147.77748 29835 ft 461 kts 15°
2026-05-08 06:54 -40.82619 147.78640 30184 ft 463 kts 16°
2026-05-08 06:55 -40.79458 147.79536 30484 ft 466 kts 16°
2026-05-08 06:55 -40.76279 147.80436 30767 ft 469 kts 16°
2026-05-08 06:55 -40.73078 147.81341 31045 ft 471 kts 16°
2026-05-08 06:55 -40.69865 147.82249 31315 ft 474 kts 16°
2026-05-08 06:56 -40.66627 147.83163 31581 ft 477 kts 16°
2026-05-08 06:56 -40.63376 147.84080 31844 ft 479 kts 16°
2026-05-08 06:56 -40.60108 147.85001 32105 ft 482 kts 16°
2026-05-08 06:56 -40.56819 147.85926 32348 ft 484 kts 16°
2026-05-08 06:57 -40.53515 147.86855 32597 ft 487 kts 15°
2026-05-08 06:57 -40.50191 147.87789 32838 ft 489 kts 16°
2026-05-08 06:57 -40.46855 147.88724 33060 ft 492 kts 15°
2026-05-08 06:57 -40.43490 147.89668 33099 ft 497 kts 15°
2026-05-08 06:58 -40.36648 147.91586 33117 ft 509 kts 15°
2026-05-08 06:58 -40.29655 147.93540 33116 ft 519 kts 15°
2026-05-08 06:59 -40.22601 147.95504 33105 ft 522 kts 15°
2026-05-08 06:59 -40.15490 147.97477 33103 ft 522 kts 15°
2026-05-08 07:00 -40.08386 147.99446 33114 ft 521 kts 15°
2026-05-08 07:00 -40.01288 148.01412 33111 ft 521 kts 15°
2026-05-08 07:01 -39.94206 148.03369 33116 ft 520 kts 15°
2026-05-08 07:01 -39.87132 148.05319 33124 ft 519 kts 15°
2026-05-08 07:02 -39.80066 148.07264 33121 ft 519 kts 15°
2026-05-08 07:02 -39.73006 148.09203 33119 ft 518 kts 15°
2026-05-08 07:03 -39.65953 148.11135 33122 ft 518 kts 15°
2026-05-08 07:03 -39.58901 148.13064 33125 ft 518 kts 15°
2026-05-08 07:04 -39.51852 148.14987 33124 ft 518 kts 15°
2026-05-08 07:04 -39.44799 148.16908 33129 ft 518 kts 15°
2026-05-08 07:05 -39.37749 148.18824 33129 ft 518 kts 15°
2026-05-08 07:05 -39.30691 148.20738 33130 ft 518 kts 15°
2026-05-08 07:06 -39.23636 148.22647 33133 ft 518 kts 15°
2026-05-08 07:06 -39.16571 148.24555 33130 ft 519 kts 15°
2026-05-08 07:07 -39.09507 148.26459 33138 ft 519 kts 15°
2026-05-08 07:07 -39.02436 148.28361 33136 ft 519 kts 15°
2026-05-08 07:08 -38.95362 148.30260 33137 ft 519 kts 14°
2026-05-08 07:08 -38.88287 148.32155 33139 ft 519 kts 14°
2026-05-08 07:09 -38.81254 148.34035 33140 ft 520 kts 14°
2026-05-08 07:09 -38.74180 148.35922 33142 ft 520 kts 14°
2026-05-08 07:10 -38.67099 148.37808 33143 ft 520 kts 14°
2026-05-08 07:10 -38.60018 148.39690 33143 ft 520 kts 14°
2026-05-08 07:11 -38.52939 148.41568 33146 ft 520 kts 14°
2026-05-08 07:11 -38.45854 148.43419 33147 ft 520 kts 13°
2026-05-08 07:12 -38.38758 148.45188 33149 ft 520 kts 13°
2026-05-08 07:12 -38.31654 148.46940 33150 ft 519 kts 13°
2026-05-08 07:13 -38.24562 148.48698 33149 ft 519 kts 13°
2026-05-08 07:13 -38.17474 148.50460 33153 ft 519 kts 13°
2026-05-08 07:14 -38.10385 148.52220 33156 ft 519 kts 13°
2026-05-08 07:14 -38.03292 148.53977 33153 ft 519 kts 13°
2026-05-08 07:15 -37.96205 148.55729 33153 ft 519 kts 13°
2026-05-08 07:15 -37.89115 148.57478 33155 ft 519 kts 13°
2026-05-08 07:16 -37.82031 148.59222 33161 ft 519 kts 13°
2026-05-08 07:16 -37.74952 148.60961 33164 ft 518 kts 12°
2026-05-08 07:17 -37.67919 148.62686 33165 ft 518 kts 12°
2026-05-08 07:17 -37.60846 148.64416 33160 ft 517 kts 12°
2026-05-08 07:18 -37.53786 148.66141 33163 ft 516 kts 12°
2026-05-08 07:18 -37.46744 148.67858 33162 ft 515 kts 12°
2026-05-08 07:19 -37.39716 148.69568 33156 ft 514 kts 12°
2026-05-08 07:19 -37.32711 148.71270 33160 ft 512 kts 12°
2026-05-08 07:20 -37.25720 148.72964 33159 ft 511 kts 11°
2026-05-08 07:20 -37.18747 148.74651 33165 ft 510 kts 11°
2026-05-08 07:21 -37.11791 148.76331 33171 ft 508 kts 11°
2026-05-08 07:21 -37.04852 148.78004 33173 ft 507 kts 11°
2026-05-08 07:22 -36.97925 148.79671 33165 ft 506 kts 11°
2026-05-08 07:22 -36.91009 148.81332 33168 ft 506 kts 11°
2026-05-08 07:23 -36.84103 148.82987 33173 ft 505 kts 10°
2026-05-08 07:23 -36.77190 148.84641 33171 ft 506 kts 10°
2026-05-08 07:24 -36.70279 148.86292 33161 ft 506 kts 10°
2026-05-08 07:24 -36.64535 148.87661 33161 ft 506 kts 10°
2026-05-08 07:25 -36.56445 148.89587 33161 ft 506 kts 10°
2026-05-08 07:26 -36.47232 148.91775 33169 ft 507 kts 10°
2026-05-08 07:26 -36.39170 148.93684 33161 ft 507 kts
2026-05-08 07:27 -36.33359 148.95059 33157 ft 508 kts
2026-05-08 07:27 -36.26412 148.96699 33164 ft 508 kts 10°
2026-05-08 07:28 -36.19458 148.98337 33157 ft 509 kts
2026-05-08 07:28 -36.12498 148.99975 33163 ft 510 kts 10°
2026-05-08 07:29 -36.05527 149.01612 33157 ft 510 kts 10°
2026-05-08 07:29 -35.98553 149.03246 33170 ft 511 kts 10°
2026-05-08 07:30 -35.91565 149.04881 33165 ft 511 kts 10°
2026-05-08 07:30 -35.84625 149.06502 33163 ft 511 kts 10°
2026-05-08 07:31 -35.77600 149.08141 33167 ft 510 kts 10°
2026-05-08 07:31 -35.70623 149.09764 33161 ft 510 kts 10°
2026-05-08 07:32 -35.63659 149.11382 33174 ft 509 kts
2026-05-08 07:32 -35.56740 149.12987 33162 ft 509 kts
2026-05-08 07:33 -35.49786 149.14597 33160 ft 508 kts
2026-05-08 07:33 -35.42840 149.16202 33158 ft 508 kts
2026-05-08 07:34 -35.35859 149.17813 33155 ft 507 kts
2026-05-08 07:34 -35.28938 149.19408 33155 ft 506 kts
2026-05-08 07:35 -35.22128 149.21562 33161 ft 506 kts 15°
2026-05-08 07:35 -35.15405 149.24096 33164 ft 505 kts 16°
2026-05-08 07:36 -35.08686 149.26590 33173 ft 504 kts 15°
2026-05-08 07:36 -35.02009 149.28997 33190 ft 503 kts 15°
2026-05-08 07:37 -34.95298 149.31394 33205 ft 502 kts 15°
2026-05-08 07:37 -34.88593 149.33791 33206 ft 502 kts 15°
2026-05-08 07:38 -34.81848 149.36201 33209 ft 501 kts 15°
2026-05-08 07:38 -34.75448 149.39451 33216 ft 502 kts 36°
2026-05-08 07:38 -34.72878 149.42212 33202 ft 501 kts 50°
2026-05-08 07:39 -34.70872 149.45645 33209 ft 496 kts 64°
2026-05-08 07:39 -34.67709 149.53140 32419 ft 503 kts 65°
2026-05-08 07:39 -34.66127 149.56919 31720 ft 502 kts 65°
2026-05-08 07:40 -34.64522 149.60690 30954 ft 503 kts 64°
2026-05-08 07:40 -34.62894 149.64454 30148 ft 505 kts 64°
2026-05-08 07:40 -34.61244 149.68226 29185 ft 506 kts 64°
2026-05-08 07:40 -34.59586 149.71997 28282 ft 506 kts 64°
2026-05-08 07:41 -34.57926 149.75766 27359 ft 507 kts 64°
2026-05-08 07:41 -34.56263 149.79539 26394 ft 507 kts 64°
2026-05-08 07:41 -34.54600 149.83316 25428 ft 509 kts 64°
2026-05-08 07:41 -34.52941 149.87082 24750 ft 503 kts 64°
2026-05-08 07:42 -34.51302 149.90798 24042 ft 498 kts 64°
2026-05-08 07:42 -34.49674 149.94485 23262 ft 494 kts 64°
2026-05-08 07:42 -34.48064 149.98124 22579 ft 486 kts 64°
2026-05-08 07:42 -34.46474 150.01714 21870 ft 480 kts 64°
2026-05-08 07:43 -34.44905 150.05254 21168 ft 475 kts 64°
2026-05-08 07:43 -34.43348 150.08765 20487 ft 470 kts 64°
2026-05-08 07:43 -34.41810 150.12232 19818 ft 465 kts 64°
2026-05-08 07:43 -34.40286 150.15665 19141 ft 461 kts 64°
2026-05-08 07:44 -34.38771 150.19073 18438 ft 458 kts 64°
2026-05-08 07:44 -34.37265 150.22460 17678 ft 455 kts 64°
2026-05-08 07:44 -34.35773 150.25810 16968 ft 450 kts 64°
2026-05-08 07:44 -34.34293 150.29132 16285 ft 446 kts 64°
2026-05-08 07:45 -34.32827 150.32418 15597 ft 442 kts 64°
2026-05-08 07:45 -34.31376 150.35672 14963 ft 437 kts 64°
2026-05-08 07:45 -34.29933 150.38901 14286 ft 435 kts 64°
2026-05-08 07:45 -34.28498 150.42108 13565 ft 433 kts 64°
2026-05-08 07:46 -34.27070 150.45294 12845 ft 429 kts 64°
2026-05-08 07:46 -34.25655 150.48453 12186 ft 425 kts 64°
2026-05-08 07:46 -34.24258 150.51572 11572 ft 419 kts 64°
2026-05-08 07:46 -34.22888 150.54627 11282 ft 408 kts 64°
2026-05-08 07:47 -34.21552 150.57607 11021 ft 399 kts 64°
2026-05-08 07:47 -34.20223 150.60574 10798 ft 405 kts 64°
2026-05-08 07:47 -34.18874 150.63580 10563 ft 408 kts 64°
2026-05-08 07:47 -34.17525 150.66585 10324 ft 406 kts 64°
2026-05-08 07:48 -34.16185 150.69573 10079 ft 404 kts 64°
2026-05-08 07:48 -34.14857 150.72524 9811 ft 395 kts 64°
2026-05-08 07:48 -34.13559 150.75387 9537 ft 383 kts 64°
2026-05-08 07:48 -34.12311 150.78121 9248 ft 362 kts 64°
2026-05-08 07:49 -34.11118 150.80703 8967 ft 344 kts 64°
2026-05-08 07:49 -34.09975 150.83157 8703 ft 329 kts 64°
2026-05-08 07:49 -34.08869 150.85508 8428 ft 316 kts 64°
2026-05-08 07:49 -34.07802 150.87766 8164 ft 304 kts 64°
2026-05-08 07:50 -34.06766 150.89922 8025 ft 290 kts 64°
2026-05-08 07:50 -34.05945 150.91630 7993 ft 285 kts 64°
2026-05-08 07:51 -34.04941 150.93716 8009 ft 290 kts 64°
2026-05-08 07:51 -34.03922 150.95834 8006 ft 293 kts 64°
2026-05-08 07:51 -34.02913 150.97950 7995 ft 290 kts 64°
2026-05-08 07:51 -34.01903 151.00056 7994 ft 290 kts 63°
2026-05-08 07:52 -34.00697 151.02027 7982 ft 292 kts 63°
2026-05-08 07:52 -34.00177 151.04292 7994 ft 276 kts 98°
2026-05-08 07:52 -34.00593 151.06514 7755 ft 271 kts 122°
2026-05-08 07:52 -34.01646 151.08302 7376 ft 263 kts 142°
2026-05-08 07:53 -34.03160 151.09475 6991 ft 257 kts 162°
2026-05-08 07:53 -34.04860 151.10003 6824 ft 248 kts 170°
2026-05-08 07:53 -34.06529 151.10422 6617 ft 243 kts 171°
2026-05-08 07:53 -34.08199 151.10796 6188 ft 246 kts 172°